Starlink 32809

operational
NORAD ID: 62849 Int'l Des: 2025-019 Owner: SPXS Country: US Constellation: starlink
LEOCIRCULAR

About Starlink 32809

Description loading...

Live Position

Loading 3D Globe...

Upcoming Passes

Altitude History

Altitude vs Time

uPlot chart will show altitude changes over time

Two-Line Element Set

1 62849U 25019W 25303.17302528 .00033286 00000-0 12126-2 0 9993
2 62849 43.0089 105.7665 0002251 267.9199 92.1395 15.27608069 42298
Epoch: Oct 30, 2025 • Age: 21 hours

Current Status

Altitude 486.3 km
Velocity 7.63 km/s
Sub-Earth Point 38.27°N, 168.17°E
Launch Date Jan 27, 2025
Age 0.7 years
Type internet

Technical Details

Classification Payload
Mass 730.00 kg
Dry Mass 700.00 kg
Total Mass 730.00 kg
Length 0.30 m
Diameter 4.10 m
Span 29.00 m
Shape Box + pan
Manufacturer SPXS
Bus Type Starlink V2M
Phase Status In Orbit
Owner/State SPXS/US

Large Constellations

Loading constellations...